STARLINK-37312, 68676

Orbit data source: Space-Track

STARLINK-37312, 68676 is a payload satellite owned by SpaceX/Seattle (US) in SSO that was launched on Sat, 11 Apr 2026 UTC via an FALCON 9 launch vehicle from the Air Force Western Test Range (AFWTR). Payload-class satellites include a variety of spacecraft equipped with specific instruments for various scientific and technological missions. These include communications satellites like Starlink; space stations such as the ISS; scientific satellites like the Hubble; Earth observation satellites from companies like Planet Labs, Umbra, and HawkEye 360; GPS; miniature CubeSats for education and research; and military/defense satellites.

Loading next visibility...
Identifier
68676, 2026-077Q
Orbit
SSO
Country
Flag of USUS
Related business
Manufacturer
SpaceX/Seattle
Mission
Operational spacecraft
Bus & Motor
STARLINK V2MO, Unknown motor
Mass
575 kg wet, ~530 kg dry
Launch date (UTC)
2026-04-11 (2 months ago)
Launch vehicle
FALCON 9
Launch site
Air Force Western Test Range (AFWTR)
Object type
Payload
Rocket body
Debris
Shape & HBR
Unknown shape, 14.5 m
Radar Cross Section
Large (>1 m²)

Expand to show TLE details & history
Last TLE update: 17 hours ago

TLE from 17 hours ago
0 STARLINK-37312
1 68676U 26077Q   26171.21737456 -.00000567  00000-0 -15256-4 0  9990
2 68676  97.2853  42.4667 0001923  83.2636 276.8825 15.33425803 10879
Epoch: 2026-06-20T05:13Z
TLE epoch observation values (Epoch: 2026-06-20T05:13:01.161Z)
Latitude
-0.00011°
Longitude
55.77671°
Altitude
468.555 km
Speed
7.632 km/s
True Right ascension
02h 49m 52s
True Declination
0° 00' 00"
Sunlit
Object was in daylight at epoch
Visualization orbit readout
Latitude
Unknown
Longitude
Unknown
Altitude
Unknown
Speed
Unknown
Apparent Right ascension
Unknown
Apparent Declination
Unknown
Sunlit
N/A
Visualization observer readout
Local Sidereal Time
08:41:56
Azimuth
Unknown
Elevation
Unknown
Doppler factor
Unknown
Orbital elements
Apogee altitude
463.859 km
Perigee altitude
461.228 km
Semi-major axis
6,840.68 km
Eccentricity
0.00019
Inclination
97.2853°
RAAN
42.4667°
Arg. of periapsis
83.2636°
True anomaly
276.86062°
Mean anomaly
276.8825°
Eccentric anomaly
276.87156°
Mean motion
3.83614 °/min
Orbital period
93.84 mins
BSTAR
-0.000015256
Loading maneuver chart data...
Computing Atmospheric mass density...
Loading historical data...
Loading historical data...
Loading historical data...
Loading historical data...
Loading historical data...
Loading historical data...
Loading historical data...

Documentation

Showing up to 5 results
|